User: anonymous   Login
Location: Caltech
(34.1382°N, 118.1253°W)
Time: 22:34:49
(UTC-08:00)
Language:

HO-68 - Orbit

View from above orbital plane
View from above orbital plane
View from above satellite
View from above satellite

Ground track
Ground track

The orbit data is extracted from the following two-line orbital elements,

1 36122U 09072B   15027.55648969 -.00000060  00000-0 -43517-4 0  3388
2 36122 100.2159 077.2577 0007695 082.9608 277.2390 13.16323311245958
Epoch (UTC): 27 January 2015 13:21:20
Eccentricity: 0.0007695
inclination: 100.2159°
perigee height: 1193 km
apogee height: 1204 km
right ascension of ascending node: 77.2577°
argument of perigee: 82.9608°
revolutions per day: 13.16323311
mean anomaly at epoch: 277.2390°
orbit number at epoch: 24595

The dashed part of the orbit path shows where the satellite is in the earth's shadow,  

DLR